Location: Cabeza de los Veneras
(40.2000°N, 5.2000°W)
Time: 03:04:57
(UTC+00:00)

USA 229 - Pass Details

Date: 18 April 2024
Orbit: 890 x 1322 km, 63.4° (Epoch: 18 May)

Event Time Altitude Azimuth Distance (km) Brightness Sun altitude
Rises 21:39:29 0° 227° (SW) 3,521 6.5 -26.6°
Reaches altitude 10° 21:41:58 10° 232° (SW) 2,612 5.8 -26.9°
Maximum altitude 21:47:54 55° 310° (NW) 1,161 4.1 -27.7°
Drops below altitude 10° 21:54:27 10° 27° (NNE) 2,864 6.2 -28.5°
Sets 21:57:18 0° 32° (NNE) 3,890 6.8 -28.9°
